Cosmos 220 Rocket - Orbit

View from above orbital plane
View from above orbital plane
View from above satellite
View from above satellite

Ground track
Ground track

The orbit data is extracted from the following two-line orbital elements,

1 03230U 68040B   13145.05891585  .00001436  00000-0  16550-3 0  9322
2 03230 074.0379 326.6966 0033439 312.2088 047.6254 14.86382872414662
Epoch (UTC): 25 May 2013 01:24:50
Eccentricity: 0.0033439
inclination: 74.0379°
perigee height: 586 km
apogee height: 632 km
right ascension of ascending node: 326.6966°
argument of perigee: 312.2088°
revolutions per day: 14.86382872
mean anomaly at epoch: 47.6254°
orbit number at epoch: 41466

The dashed part of the orbit path shows where the satellite is in the earth's shadow,  

Developed and maintained by Chris Peat, Heavens-Above GmbH. Please read the updated FAQ before sending e-mail. Imprint. DLR